Stations météo

Publicité
Lyon/Bron, France (7480): Température de l'air & dewpoint: 11.12.2017 03:00:00 - 17.12.2017 03:00:00 (CET)Lyon/Bron, France (7480): Température de l'air 5cm: 11.12.2017 03:00:00 - 17.12.2017 03:00:00 (CET)Lyon/Bron, France (7480): Température de l'air -20cm: 11.12.2017 03:00:00 - 17.12.2017 03:00:00 (CET)Lyon/Bron, France (7480): Vitesse du vent & gusts: 11.12.2017 03:00:00 - 17.12.2017 03:00:00 (CET)Lyon/Bron, France (7480): Direction du vent: 11.12.2017 03:00:00 - 17.12.2017 03:00:00 (CET)Lyon/Bron, France (7480): reduced air pressure: 11.12.2017 03:00:00 - 17.12.2017 03:00:00 (CET)Lyon/Bron, France (7480): visibility: 11.12.2017 03:00:00 - 17.12.2017 03:00:00 (CET)Lyon/Bron, France (7480): Ensoleillement: 11.12.2017 03:00:00 - 17.12.2017 03:00:00 (CET)Lyon/Bron, France (7480): Quantités de précipitations: 11.12.2017 03:00:00 - 17.12.2017 03:00:00 (CET)
Date & Time tt [°C] td [°C] tt 5cm [°C] tt -20cm [°C] ff [km/h] ff [knt] fx [km/h] fx [knt] dd ppp [hPa] vv [km] sd [min] rr [mm]
17.12.2017 03:00:00 2,1 0,8 0,1 5,8 4 2 7 4 E 1025,2 32 0 0,0
17.12.2017 02:00:00 2,7 1,1 1,3 5,9 3 2 9 5 WNW 1024,8 41 0 0,0
17.12.2017 01:00:00 3,2 1,2 2,7 5,9 6 3 21 11 N 1024,5 50 0 0,0
17.12.2017 00:00:00 3,5 1,4 2,8 6,0 12 6 19 10 NW 1024,4 31 0 0,0
16.12.2017 23:00:00 3,2 1,7 2,0 6,0 10 6 15 8 NNW 1023,8 28 0 0,0
16.12.2017 22:00:00 2,5 1,5 1,4 6,0 7 4 16 9 N 1023,5 42 0 0,0
16.12.2017 21:00:00 3,3 2,1 2,4 6,1 10 5 15 8 NNE 1023,0 20 0 0,2
16.12.2017 20:00:00 2,8 1,9 2,1 6,1 4 2 14 7 NNW 1022,3 35 0 0,0
16.12.2017 19:00:00 2,6 1,7 1,8 6,1 9 5 21 11 NNW 1021,4 16 0 1,8
16.12.2017 18:00:00 2,7 1,5 2,0 6,1 19 10 28 15 NNW 1020,5 5 0 2,8
16.12.2017 17:00:00 3,8 1,7 2,9 6,1 11 6 23 12 N 1019,5 60 0 0,0
16.12.2017 16:00:00 4,1 2,0 3,2 6,0 13 7 32 18 N 1018,6 20 0 0,4
16.12.2017 15:00:00 6,6 -0,9 6,6 5,9 21 11 32 17 NNW 1017,2 60 9 0,0
16.12.2017 14:00:00 6,4 -0,6 6,6 5,9 15 8 26 14 N 1017,0 58 14 0,0
16.12.2017 13:00:00 5,9 0,0 6,5 5,9 18 10 31 17 NNW 1016,9 10 10 0,0
16.12.2017 12:00:00 5,9 0,6 5,0 5,8 16 8 26 14 N 1016,3 59 13 0,0
16.12.2017 11:00:00 4,7 0,8 4,2 5,9 9 5 19 10 NNW 1016,1 60 0 0,0
16.12.2017 10:00:00 4,3 1,5 3,6 5,9 6 3 16 8 NW 1014,8 59 0 0,0
16.12.2017 09:00:00 3,9 1,3 2,8 6,0 6 3 18 10 NW 1013,5 59 0 0,0
16.12.2017 08:00:00 4,0 0,3 3,0 6,0 6 3 19 11 WNW 1012,4 60 0 0,0
16.12.2017 07:00:00 3,7 0,6 3,0 6,1 16 9 33 18 NW 1011,3 60 0 0,0
16.12.2017 06:00:00 3,8 0,8 3,2 6,2 16 9 29 16 WNW 1010,3 10 0 0,0
16.12.2017 05:00:00 3,8 0,3 2,7 6,2 10 6 24 13 W 1009,6 60 0 0,0
16.12.2017 04:00:00 3,6 -0,4 2,5 6,2 12 7 34 18 WNW 1009,1 60 0 0,0
16.12.2017 03:00:00 4,1 0,4 2,9 6,3 22 12 37 20 WNW 1008,3 60 0 0,0
16.12.2017 02:00:00 4,8 0,6 4,4 6,3 23 12 42 23 WNW 1007,1 60 0 0,0
16.12.2017 01:00:00 5,0 0,6 4,1 6,4 21 11 36 19 W 1006,6 10 0 0,0
16.12.2017 00:00:00 4,7 0,6 3,8 6,4 21 11 39 21 WNW 1006,1 60 0 0,0
15.12.2017 23:00:00 6,2 0,3 4,3 6,5 26 14 41 22 W 1004,8 60 0 0,0
15.12.2017 22:00:00 5,4 1,3 3,8 6,5 17 9 31 17 SW 1004,2 60 0 0,0
15.12.2017 21:00:00 5,7 2,3 4,7 6,6 12 6 19 10 WSW 1003,8 58 0 0,0
15.12.2017 20:00:00 6,4 1,7 5,1 6,6 13 7 20 11 SSW 1003,0 60 0 0,0
15.12.2017 19:00:00 6,6 1,3 5,1 6,6 10 5 18 10 SSW 1002,6 59 0 0,0
15.12.2017 18:00:00 6,9 1,6 4,4 6,5 7 4 22 12 S 1002,2 57 0 0,0
15.12.2017 17:00:00 7,8 0,7 6,8 6,5 11 6 17 9 S 1002,3 60 13 0,0
15.12.2017 16:00:00 8,8 1,2 8,2 6,4 11 6 20 11 S 1002,2 60 25 0,0
15.12.2017 15:00:00 9,6 1,5 9,0 6,2 12 7 23 12 S 1002,5 59 44 0,0
15.12.2017 14:00:00 9,2 1,8 9,0 6,1 11 6 23 12 S 1003,2 60 10 0,0
15.12.2017 13:00:00 9,5 1,9 11,6 6,1 14 8 23 12 S 1003,9 60 60 0,0
15.12.2017 12:00:00 8,8 2,8 10,6 6,0 13 7 21 11 S 1004,8 60 60 0,0
15.12.2017 11:00:00 7,8 3,1 6,7 6,1 12 7 19 10 S 1005,6 55 33 0,0
15.12.2017 10:00:00 5,9 2,5 3,5 6,1 12 7 17 9 S 1005,5 60 11 0,0
15.12.2017 09:00:00 4,9 1,9 4,0 6,2 10 6 15 8 S 1004,7 60 0 0,0
15.12.2017 08:00:00 5,4 1,9 4,1 6,2 9 5 17 9 SSW 1004,6 10 0 0,0
15.12.2017 07:00:00 5,6 1,7 4,1 6,3 13 7 21 11 S 1003,8 60 0 0,0
15.12.2017 06:00:00 4,9 2,3 3,6 6,3 13 7 21 11 S 1004,2 60 0 0,0
15.12.2017 05:00:00 4,8 2,3 3,7 6,4 8 4 13 7 E 1003,9 60 0 0,0
15.12.2017 04:00:00 4,7 2,6 3,9 6,4 11 6 30 16 SSW 1004,2 10 0 0,0
15.12.2017 03:00:00 5,1 2,6 3,5 6,4 21 11 31 17 SSW 1004,7 10 0 0,0
15.12.2017 02:00:00 4,0 2,5 3,0 6,4 11 6 51 28 SSW 1004,8 50 0 1,2
15.12.2017 01:00:00 4,3 2,3 3,4 6,4 28 15 56 31 NW 1004,9 9 0 1,8
15.12.2017 00:00:00 9,8 3,7 7,1 6,4 22 12 42 23 S 1001,5 60 0 0,0
14.12.2017 23:00:00 8,4 3,8 7,1 6,4 16 9 31 17 SSE 1001,8 60 0 0,0
14.12.2017 22:00:00 9,9 3,6 8,9 6,4 21 11 37 20 S 1002,5 60 0 0,0
14.12.2017 21:00:00 10,5 3,7 9,3 6,3 25 13 41 22 S 1003,1 60 0 0,0
14.12.2017 20:00:00 10,5 4,8 9,6 6,3 22 12 37 20 S 1003,2 57 0 0,0
14.12.2017 19:00:00 10,4 5,0 9,7 6,2 22 12 43 23 S 1003,5 52 0 0,0
14.12.2017 18:00:00 10,5 5,0 9,8 6,1 22 12 40 22 S 1004,2 55 0 0,0
14.12.2017 17:00:00 10,7 5,0 10,0 5,9 27 15 44 24 S 1004,5 59 12 0,0
14.12.2017 16:00:00 11,3 5,4 10,7 5,8 23 12 39 21 S 1005,1 60 8 0,0
14.12.2017 15:00:00 11,4 5,7 10,5 5,7 16 9 32 17 S 1005,9 60 2 0,0
14.12.2017 14:00:00 11,0 6,7 8,8 5,5 22 12 36 19 SSW 1007,0 58 4 0,4
14.12.2017 13:00:00 13,0 6,1 11,7 5,4 14 8 31 17 S 1007,7 60 50 0,0
14.12.2017 12:00:00 10,2 6,2 9,9 5,3 16 9 30 16 SSW 1009,8 47 2 0,0
14.12.2017 11:00:00 9,2 5,4 7,9 5,3 13 7 22 12 SSW 1011,2 10 14 0,0
14.12.2017 10:00:00 7,4 5,5 6,8 5,2 0 0 18 10 N 1011,2 20 0 0,0
14.12.2017 09:00:00 7,7 5,7 5,9 5,2 14 7 29 16 S 1011,4 42 0 0,0
14.12.2017 08:00:00 7,4 5,5 5,4 5,2 18 10 29 15 S 1010,9 10 0 0,0
14.12.2017 07:00:00 7,5 5,3 6,1 5,2 14 8 35 19 S 1010,8 54 0 0,0
14.12.2017 06:00:00 7,2 5,0 5,7 5,2 16 9 40 21 S 1010,6 48 0 0,0
14.12.2017 05:00:00 7,6 5,2 6,6 5,1 29 16 54 29 S 1010,4 10 0 0,0
14.12.2017 04:00:00 7,7 5,0 6,9 5,0 37 20 61 33 S 1010,0 56 0 0,0
14.12.2017 03:00:00 7,8 4,6 6,9 5,0 35 19 60 33 S 1010,2 10 0 0,0
14.12.2017 02:00:00 7,5 4,1 6,9 4,9 43 23 68 37 S 1009,8 60 0 0,0
14.12.2017 01:00:00 7,4 3,6 6,7 4,9 47 26 68 37 S 1010,0 60 0 0,0
14.12.2017 00:00:00 7,3 2,8 6,4 4,9 42 23 74 40 S 1009,9 10 0 0,0
13.12.2017 23:00:00 6,8 1,9 5,9 4,9 42 23 62 34 S 1009,9 60 0 0,0
13.12.2017 22:00:00 6,5 1,6 5,1 4,8 44 24 71 38 S 1010,2 60 0 0,0
13.12.2017 21:00:00 5,8 2,1 4,0 4,8 38 21 71 38 S 1010,8 47 0 0,2
13.12.2017 20:00:00 5,4 2,2 3,7 4,8 34 18 57 31 S 1011,7 43 0 0,4
13.12.2017 19:00:00 5,5 1,2 3,6 4,8 36 19 59 32 S 1012,9 18 0 0,2
13.12.2017 18:00:00 6,3 -0,2 5,3 4,7 31 17 50 27 S 1014,0 60 0 0,0
13.12.2017 17:00:00 5,8 0,5 4,7 4,7 26 14 42 23 S 1014,8 10 0 0,0
13.12.2017 16:00:00 5,5 0,3 4,1 4,7 28 15 40 21 S 1015,4 10 0 0,0
13.12.2017 15:00:00 4,5 0,8 2,7 4,6 24 13 41 22 S 1015,9 60 0 1,2
13.12.2017 14:00:00 4,4 0,5 3,5 4,6 14 8 33 18 S 1016,7 20 0 0,0
13.12.2017 13:00:00 4,6 -0,4 4,7 4,6 20 11 35 19 S 1017,2 55 15 0,0
13.12.2017 12:00:00 3,7 -0,7 3,0 4,7 16 8 28 15 S 1018,1 42 15 0,0
13.12.2017 11:00:00 2,6 -0,9 1,9 4,8 14 7 21 11 S 1019,7 43 19 0,0
13.12.2017 10:00:00 1,1 -0,8 -2,6 4,9 4 2 11 6 SE 1020,3 20 60 0,0
13.12.2017 09:00:00 -1,2 -1,6 -5,7 5,0 7 4 10 6 ESE 1021,0 15 34 0,0
13.12.2017 08:00:00 -2,5 -3,1 -5,8 5,1 3 2 9 5 ESE 1021,4 8 0 0,0
13.12.2017 07:00:00 -2,6 -3,0 -5,4 5,3 6 3 9 5 SE 1021,6 7 0 0,0
13.12.2017 06:00:00 -2,7 -3,2 -5,6 5,4 0 0 5 3 N 1022,0 2,7 0 0,0
13.12.2017 05:00:00 -2,7 -3,2 -5,3 5,5 0 0 9 5 N 1022,2 4,0 0 0,0
13.12.2017 04:00:00 -2,1 -2,7 -4,7 5,7 3 1 10 5 E 1022,6 3,3 0 0,0
13.12.2017 03:00:00 -1,5 -2,1 -4,3 5,8 7 4 10 5 ESE 1022,4 4,5 0 0,0
13.12.2017 02:00:00 -1,3 -1,9 -4,3 5,9 0 0 12 6 N 1022,3 4,6 0 0,0
13.12.2017 01:00:00 -1,3 -1,9 -4,5 6,1 4 2 6 4 SSE 1022,6 9 0 0,0
13.12.2017 00:00:00 -0,8 -1,4 -4,0 6,2 4 2 10 6 SSW 1022,2 11 0 0,0
12.12.2017 23:00:00 -0,6 -1,2 -3,3 6,4 6 3 8 4 SSW 1021,7 4,9 0 0,0
12.12.2017 22:00:00 0,1 -0,5 -3,4 6,5 4 2 8 4 ESE 1021,4 4,3 0 0,0
12.12.2017 21:00:00 0,2 -0,5 -2,8 6,6 3 2 4 2 S 1021,3 6 0 0,0
12.12.2017 20:00:00 0,7 -0,3 -2,3 6,7 0 0 4 2 N 1020,7 7 0 0,0
12.12.2017 19:00:00 1,6 0,4 -1,6 6,7 0 0 4 2 N 1019,7 12 0 0,0
12.12.2017 18:00:00 3,0 1,4 0,3 6,8 2 1 6 4 ESE 1018,7 24 0 0,0
12.12.2017 17:00:00 4,4 1,9 3,1 6,7 6 3 10 5 ESE 1018,0 18 23 0,0
12.12.2017 16:00:00 5,7 2,5 5,5 6,6 7 4 12 6 E 1017,0 46 24 0,0
12.12.2017 15:00:00 6,3 2,7 7,2 6,6 4 2 8 4 ENE 1016,4 41 19 0,0
12.12.2017 14:00:00 6,0 2,6 5,8 6,6 0 0 5 3 N 1015,7 31 3 0,0
12.12.2017 13:00:00 4,9 2,6 4,8 6,5 3 2 6 3 S 1015,7 33 0 0,0
12.12.2017 12:00:00 4,9 2,4 5,5 6,5 3 1 11 6 S 1015,3 47 0 0,0
12.12.2017 11:00:00 4,5 2,2 3,5 6,5 4 2 9 5 SE 1014,9 35 6 0,4
12.12.2017 10:00:00 3,6 1,8 3,2 6,5 0 0 6 3 N 1014,2 11 0 0,6
12.12.2017 09:00:00 3,5 2,0 2,7 6,6 3 2 6 4 N 1012,7 42 0 0,4
12.12.2017 08:00:00 3,7 1,9 2,8 6,7 4 2 5 3 NNE 1011,6 23 0 0,2
12.12.2017 07:00:00 4,1 1,3 2,8 6,7 5 3 9 5 NNE 1009,9 50 0 0,2
12.12.2017 06:00:00 4,5 1,2 3,4 6,7 0 0 16 9 N 1008,5 19 0 0,0
12.12.2017 05:00:00 4,9 0,7 3,9 6,8 3 2 9 5 NW 1007,0 60 0 0,0
12.12.2017 04:00:00 5,0 1,3 4,0 6,8 5 3 15 8 NNW 1006,0 60 0 0,0
12.12.2017 03:00:00 5,3 1,4 4,3 6,8 9 5 26 14 NW 1004,7 60 0 0,0
12.12.2017 02:00:00 5,5 1,4 4,2 6,9 16 9 24 13 NW 1002,8 60 0 0,0
12.12.2017 01:00:00 5,4 1,9 4,2 6,9 11 6 36 19 WNW 1001,2 60 0 1,2
12.12.2017 00:00:00 7,1 4,6 5,7 6,9 14 8 44 24 WNW 999,2 18 0 0,2
11.12.2017 23:00:00 8,0 4,6 7,1 6,9 27 15 46 25 S 996,6 60 0 0,0
11.12.2017 22:00:00 7,9 4,7 7,3 6,9 23 13 45 24 S 995,1 60 0 0,0
11.12.2017 21:00:00 7,9 4,3 7,1 7,0 29 15 44 24 S 993,7 60 0 0,0
11.12.2017 20:00:00 7,9 4,7 7,2 6,9 21 11 39 21 S 992,7 10 0 0,0
11.12.2017 19:00:00 8,0 4,9 7,4 6,9 18 10 37 20 S 990,9 10 0 0,0
11.12.2017 18:00:00 8,3 5,0 7,5 6,9 15 8 27 15 S 989,4 60 0 0,0
11.12.2017 17:00:00 8,8 4,8 6,7 6,9 13 7 31 17 SE 988,1 39 0 0,0
11.12.2017 16:00:00 8,7 4,5 6,6 6,8 21 11 29 16 SSW 987,0 20 0 0,4
11.12.2017 15:00:00 8,9 4,5 6,8 6,8 22 12 36 19 SSW 986,1 10 0 0,6
11.12.2017 14:00:00 10,1 3,8 7,9 6,7 18 10 39 21 SW 985,1 10 0 0,0
11.12.2017 13:00:00 10,6 4,7 8,6 6,6 20 11 42 23 SW 984,0 60 0 0,0
11.12.2017 12:00:00 10,1 7,0 8,6 6,4 23 12 57 31 WSW 984,1 20 0 4,2
11.12.2017 11:00:00 13,0 10,2 11,4 6,3 34 18 81 44 S 983,6 18 0 0,0
11.12.2017 10:00:00 13,6 10,4 11,7 6,2 54 29 89 48 S 981,4 10 0 0,0
11.12.2017 09:00:00 14,0 9,6 12,9 6,0 39 21 89 48 S 981,1 60 0 0,0
11.12.2017 08:00:00 13,7 8,7 12,0 5,9 53 29 91 49 S 979,7 60 0 0,0
11.12.2017 07:00:00 13,0 9,1 10,6 5,8 58 31 94 51 S 979,7 59 0 0,2
11.12.2017 06:00:00 12,9 9,2 10,7 5,7 50 27 98 53 S 981,5 15 0 0,2
11.12.2017 05:00:00 13,1 8,8 11,0 5,6 54 29 87 47 S 982,0 10 0 0,0
11.12.2017 04:00:00 12,4 8,5 10,1 5,5 46 25 76 41 S 983,9 10 0 0,0
11.12.2017 03:00:00 11,2 7,5 8,7 5,4 34 18 56 30 S 985,5 60 0 0,0

tt = Température de l'air
td = dewpoint
tt 5cm = Température de l'air 5cm
tt -20cm = Température de l'air -20cm
ff = Vitesse du vent
fx = gusts
dd = Direction du vent
ppp = reduced air pressure
vv = visibility
sd = Ensoleillement
rr = Quantités de précipitations

stations d'obs. à proximité